Theta_e
349 349 349 349 350 347 346 346 345 345 344 345 344 344 344 344 343 343 347 346 345 342 343 344 344 342 341 341 340 341 342 342 343 343 342 342 342 342 341 341 340 339 340 340 339 336 337 334 334 334 335 333 332 331 330 330 330 330 330 329 329 330 330 328 325 325 329 335 335 335 337 338 337 339 339 344 351 353 352 353 353 351 351 350 350
349 348 349 349 347 346 345 345 345 346 344 345 343 343 342 342 344 345 341 344 344 341 343 342 343 343 340 341 342 342 342 342 341 341 341 341 338 339 339 339 339 337 339 338 336 336 336 334 332 333 335 332 331 329 329 328 327 326 327 327 327 328 331 328 326 324 324 330 333 337 337 339 336 340 338 341 349 353 351 352 353 353 352 352 351
347 350 348 347 347 347 347 346 346 345 344 343 338 337 337 341 341 340 339 340 347 346 345 343 345 344 342 341 342 341 342 342 344 342 341 340 338 338 339 340 338 337 336 336 334 336 334 333 330 331 331 330 329 328 328 327 326 326 326 326 326 327 327 327 326 323 324 327 331 331 334 337 337 337 339 339 341 350 350 349 349 350 351 351 350
343 348 348 345 345 346 346 346 343 339 336 340 337 336 335 336 342 345 337 342 342 347 343 341 342 342 341 341 340 341 341 343 344 342 341 340 339 338 338 338 337 337 336 335 333 333 332 331 330 330 331 328 328 327 327 326 326 325 325 326 326 325 326 327 327 325 326 325 329 330 334 335 337 339 340 341 341 346 349 349 350 349 349 350 349
343 344 344 342 341 345 343 342 341 342 340 335 336 334 333 333 339 336 340 340 344 345 346 345 344 342 341 342 341 340 341 342 342 341 341 341 339 337 337 337 337 337 336 335 333 334 332 330 330 331 331 328 326 325 326 325 325 325 325 325 325 325 325 325 325 326 325 325 328 332 335 336 339 339 340 338 339 343 347 345 346 346 347 350 351
344 343 341 342 344 342 343 342 340 341 340 338 337 338 339 341 337 335 343 335 341 338 341 340 340 341 343 342 341 340 341 343 343 342 340 340 339 338 337 338 337 336 336 334 333 333 331 331 330 331 330 327 326 326 327 325 325 324 324 324 324 324 324 323 324 324 324 325 328 329 333 333 335 337 340 340 338 338 342 345 344 345 345 345 346
342 340 340 341 343 342 342 343 343 340 343 342 342 339 335 333 333 335 335 335 333 333 335 337 342 342 342 343 342 341 340 340 343 343 342 341 339 338 337 337 337 335 334 333 331 331 331 330 331 331 330 329 327 327 326 326 325 324 325 324 324 323 322 322 322 322 322 323 326 329 330 332 334 333 338 341 340 340 338 339 342 347 346 344 343
342 342 342 345 345 343 342 344 343 345 344 347 346 343 342 344 341 344 340 336 334 335 332 335 336 339 338 337 337 339 338 338 342 343 344 342 340 338 338 337 336 335 334 333 332 330 330 330 329 330 330 329 328 327 327 325 326 325 325 325 324 323 321 322 321 321 321 322 324 326 330 330 333 335 337 338 335 337 339 337 336 342 344 347 347
342 341 344 345 346 347 347 346 346 346 344 346 345 344 343 346 344 343 343 340 337 335 335 335 338 338 337 337 338 340 338 337 338 342 342 341 340 337 338 337 335 333 333 332 331 331 331 330 329 330 331 330 326 324 324 322 324 323 324 325 324 322 321 321 321 320 320 322 323 326 329 329 330 331 332 333 332 333 336 337 337 341 342 342 346
343 343 343 344 347 346 347 347 347 346 345 344 344 344 342 344 341 341 341 340 340 340 341 340 334 334 336 339 338 337 337 339 338 334 335 340 339 337 335 335 335 334 333 331 330 330 330 330 330 333 328 325 324 323 321 320 320 323 325 325 323 322 321 319 319 320 320 319 320 323 324 326 328 331 331 334 336 337 336 336 334 337 342 341 342
345 345 345 346 346 346 346 345 346 345 345 343 344 344 344 343 344 343 343 342 341 341 339 338 333 334 334 333 333 335 337 337 333 328 329 333 336 337 337 336 336 335 332 330 328 329 330 331 331 332 332 331 331 328 324 321 321 320 320 319 319 321 320 320 319 320 320 319 320 321 322 324 327 331 331 333 336 335 335 335 335 336 335 334 334
344 346 346 347 347 346 344 345 344 345 345 344 344 344 344 344 343 343 342 340 342 342 338 338 338 337 335 333 334 337 336 334 326 326 328 328 331 336 336 335 333 333 332 330 329 328 329 329 329 330 331 331 331 329 328 325 321 320 319 319 319 318 318 320 320 319 320 318 318 320 321 322 324 329 331 331 334 335 335 335 335 335 335 334 336
345 347 347 347 345 345 345 344 344 344 344 344 345 345 345 343 342 341 339 341 341 340 340 339 339 339 337 339 334 334 333 330 324 324 325 325 326 329 334 334 333 333 332 331 329 329 330 331 330 330 330 330 332 331 331 331 323 321 319 319 319 319 319 319 318 321 321 320 319 321 322 323 323 325 330 333 335 334 335 335 336 338 337 334 336
346 346 346 346 345 345 344 343 342 343 344 344 345 344 343 342 342 340 340 342 341 338 337 337 337 338 340 339 339 336 335 329 323 322 322 322 324 327 333 334 334 334 333 331 329 329 330 332 328 328 329 329 328 329 330 331 329 327 325 323 322 321 318 318 317 317 319 321 321 321 324 326 325 327 331 333 334 333 333 334 336 335 336 336 340
344 345 345 346 346 345 344 343 342 343 343 344 345 343 342 343 342 341 339 338 338 338 338 338 339 337 340 336 335 334 332 326 320 319 318 319 321 324 332 334 335 335 334 332 330 330 331 327 325 325 326 326 327 329 331 329 328 326 324 323 321 321 321 321 322 322 322 322 322 322 322 324 326 329 331 333 334 336 337 336 338 337 337 341 342
343 344 344 345 346 344 343 343 342 342 343 343 343 342 343 345 345 345 342 338 337 335 335 337 336 335 338 338 333 335 330 320 319 318 316 316 319 327 331 333 334 334 333 331 332 334 330 326 326 326 326 327 325 322 323 324 325 324 322 321 320 320 321 318 318 319 321 322 322 322 323 323 321 325 329 332 335 337 339 338 337 336 334 332 332
343 343 343 344 345 344 342 341 341 341 342 341 341 341 343 343 343 347 340 336 334 333 333 333 335 335 334 333 333 334 332 325 316 316 316 315 319 330 333 333 334 333 331 332 334 332 331 328 326 325 326 328 324 320 318 315 324 323 322 320 320 319 320 322 320 318 317 316 314 315 315 316 317 317 317 318 321 325 333 333 332 335 334 331 331
341 343 343 343 344 344 342 341 341 341 341 339 339 341 340 342 343 343 337 335 332 331 331 332 335 337 334 333 328 330 329 327 318 314 314 314 321 329 332 333 332 332 331 333 334 333 333 332 327 325 327 328 321 315 315 317 322 321 320 319 318 318 320 322 323 322 318 317 317 318 317 317 317 317 317 317 317 320 325 330 334 335 332 331 330
342 343 344 345 346 345 343 342 341 340 341 339 339 339 339 339 340 341 336 335 334 337 335 331 332 334 330 328 333 329 328 324 315 314 315 316 323 330 332 331 331 332 332 331 332 333 334 335 330 326 326 325 313 311 311 312 318 320 319 318 318 318 319 320 319 319 321 323 324 325 326 321 320 321 322 317 318 320 324 331 336 335 331 332 332
345 346 345 346 347 346 344 344 342 341 341 342 342 343 341 339 339 335 334 333 333 334 333 330 329 328 327 327 327 330 328 332 329 315 314 313 314 326 330 331 330 331 331 331 329 330 329 329 328 321 315 312 307 306 305 305 313 318 319 318 319 318 320 318 320 321 322 322 322 325 327 329 328 325 324 323 323 325 325 329 336 337 335 333 335
347 346 348 345 345 344 344 344 342 341 343 343 341 337 338 337 337 337 332 332 335 333 332 332 330 331 331 329 329 329 331 330 330 316 315 314 313 317 331 332 332 330 330 329 328 327 326 328 327 319 309 307 305 302 302 304 307 317 321 320 319 316 312 318 323 318 322 322 323 324 326 327 327 328 326 325 325 327 329 330 336 337 335 333 333
350 349 347 346 344 343 342 344 342 342 344 342 341 342 340 342 339 338 335 336 337 335 334 334 333 329 326 326 326 326 328 330 329 324 317 312 312 310 326 329 330 329 327 326 326 326 328 330 328 322 307 306 303 301 301 304 307 319 321 308 308 311 317 322 322 322 321 321 321 322 322 324 327 331 328 327 328 332 332 334 335 337 337 337 336
355 353 349 347 344 344 346 345 342 340 339 340 338 336 339 334 330 332 337 337 335 333 332 333 334 331 329 328 329 328 328 330 328 329 320 314 310 310 311 317 318 325 325 325 326 327 329 329 330 321 307 302 300 300 302 304 311 317 306 307 310 311 316 320 320 319 319 320 319 319 320 321 322 326 331 330 332 335 335 335 336 336 337 337 338
346 349 351 350 346 344 344 341 343 345 342 340 338 339 337 333 332 331 336 337 335 333 333 332 334 329 328 329 329 331 329 331 327 323 325 318 311 306 306 307 307 318 324 324 326 326 329 329 323 309 302 300 300 302 303 306 316 306 306 309 311 313 318 317 316 317 318 317 317 318 318 320 321 322 326 334 334 336 336 336 336 336 336 336 338
342 339 338 340 345 345 345 342 340 339 339 338 336 336 332 334 335 334 334 334 335 333 332 330 329 329 328 327 329 329 330 329 328 326 323 319 314 310 311 311 312 309 317 323 327 330 319 308 305 305 306 305 304 304 311 316 310 309 309 310 313 316 315 315 315 316 315 315 316 317 319 320 321 323 326 333 338 338 336 336 337 337 337 337 337
338 337 338 341 342 339 333 334 337 336 337 337 335 337 332 333 334 335 333 332 332 333 332 333 329 328 329 329 329 329 329 330 329 327 321 319 316 314 312 313 313 314 316 322 316 313 310 309 310 311 313 316 326 329 327 322 313 313 313 313 316 315 314 314 313 314 313 314 316 317 318 320 321 323 324 324 326 333 337 335 334 334 335 335 335
336 337 337 339 339 337 332 331 333 336 335 334 335 333 337 336 335 333 334 332 330 329 328 328 328 325 325 325 328 328 329 327 320 316 317 316 315 315 317 318 316 316 321 325 321 321 322 323 324 316 315 313 316 318 320 321 321 319 318 317 315 315 314 314 313 313 314 314 316 317 319 321 322 322 321 320 320 322 332 335 334 333 334 334 334
336 334 334 334 335 334 336 332 334 329 330 330 329 334 332 329 329 329 326 327 326 325 325 326 326 322 324 325 325 326 325 319 312 310 312 312 310 310 313 314 314 315 316 319 318 318 320 320 324 328 327 323 320 319 321 321 323 319 317 316 315 315 316 314 313 315 314 315 316 317 318 319 320 320 321 319 318 319 322 326 331 334 336 336 333
338 337 336 336 335 339 335 335 333 333 334 335 323 316 318 324 327 320 315 317 319 320 322 322 322 321 322 324 323 321 319 314 309 301 304 299 303 305 308 308 307 310 312 307 311 317 324 324 320 316 316 315 314 314 314 315 316 316 316 315 314 313 312 312 311 312 314 314 315 315 316 317 318 320 320 319 318 318 319 319 321 325 331 333 331
335 331 332 332 332 332 332 328 329 331 329 332 322 313 305 299 308 322 314 305 301 301 306 315 313 319 319 313 314 313 311 308 299 294 293 293 293 294 295 294 295 300 301 303 310 318 320 316 315 313 312 313 311 311 310 311 311 311 313 313 314 312 311 311 311 311 314 314 315 315 315 316 316 318 319 318 318 319 318 317 318 319 317 318 318
335 329 330 327 327 330 328 328 330 337 334 330 328 321 316 308 295 297 302 301 298 294 294 295 299 304 316 312 306 303 302 297 294 293 293 293 292 292 292 293 295 295 297 311 320 316 314 313 312 312 312 311 310 310 310 309 309 310 310 312 314 311 311 310 309 311 314 314 314 314 315 315 315 317 317 318 318 318 319 319 319 318 317 317 315
336 331 328 330 337 337 331 335 333 331 332 333 333 329 324 317 312 297 295 299 297 293 294 294 294 296 299 305 309 312 304 298 294 294 293 293 293 293 293 293 295 295 298 304 318 314 313 312 310 309 309 309 308 309 309 308 308 308 307 308 310 310 309 308 308 310 313 314 313 313 313 314 315 315 317 318 317 318 318 318 318 317 317 317 316
331 330 332 333 334 336 331 336 331 329 328 331 327 328 328 325 316 313 308 295 294 295 295 294 294 295 295 295 297 298 298 296 295 295 295 295 293 293 292 292 292 294 303 312 312 310 310 309 308 307 307 307 307 307 307 307 306 306 307 306 307 307 308 309 309 310 311 312 312 312 313 313 313 314 315 317 318 317 317 317 318 318 317 316 317
334 334 331 330 334 333 330 331 329 330 332 334 331 330 327 327 323 317 314 312 310 303 296 293 293 295 295 295 296 295 296 296 296 296 296 297 296 296 293 302 299 294 302 311 308 307 306 305 304 304 304 304 304 305 305 304 304 305 305 305 306 306 306 308 307 307 309 310 310 310 311 313 312 312 313 315 317 317 318 317 318 317 316 316 315
333 332 329 329 328 330 327 330 328 334 328 329 329 327 326 328 327 324 320 319 317 315 313 310 298 294 304 299 295 295 296 295 295 296 297 298 298 296 293 312 317 313 310 308 306 305 304 303 302 302 302 302 302 303 302 302 303 303 303 303 304 304 304 304 304 305 307 308 308 308 310 312 312 311 313 313 314 314 315 317 317 318 317 318 317
330 329 328 328 328 331 330 332 331 330 329 329 329 327 325 324 323 323 321 322 320 319 317 316 314 307 298 298 297 295 296 296 295 295 295 298 298 302 312 309 307 307 306 305 305 305 304 303 303 303 303 302 302 302 302 302 302 301 302 302 303 304 303 303 303 304 305 306 306 307 307 310 312 311 313 312 313 313 314 315 317 318 319 319 319
328 327 331 331 332 331 331 331 331 330 327 326 326 326 324 322 322 322 321 320 320 320 319 317 315 312 308 312 303 296 294 294 294 294 293 294 301 309 308 307 305 305 305 304 305 305 304 304 304 304 304 304 304 303 303 302 303 303 302 303 303 303 302 302 302 304 303 303 304 305 307 307 309 310 311 311 311 313 314 315 315 316 318 319 318
330 330 331 331 329 332 330 331 326 325 326 325 327 326 322 321 320 320 319 317 318 317 317 315 314 312 311 311 312 314 314 300 296 298 299 299 308 310 307 306 306 304 303 304 305 306 305 304 304 303 303 303 304 304 303 303 303 302 301 302 302 302 302 302 302 302 302 302 303 303 305 307 308 309 309 310 310 311 312 313 314 314 316 318 318
329 322 320 321 325 331 332 327 326 325 325 325 323 322 320 318 318 317 316 316 314 313 313 312 310 308 307 309 310 311 312 313 310 309 310 309 309 308 306 305 304 304 304 304 305 305 304 303 303 304 302 302 303 303 302 302 302 303 303 301 299 300 300 299 299 300 300 301 302 302 303 305 306 307 308 309 309 311 311 312 313 313 314 314 315
330 330 325 321 325 325 327 330 325 325 325 323 321 320 318 317 315 314 314 313 312 311 311 310 309 307 307 307 307 305 308 308 308 308 308 307 306 306 306 304 304 303 303 303 304 305 304 303 304 302 303 302 302 302 302 301 301 301 301 301 298 298 299 299 299 299 299 300 301 301 302 304 305 306 306 307 308 309 310 310 310 311 312 314 313
327 327 324 322 322 326 325 325 324 323 323 321 320 319 318 318 317 316 314 313 312 312 311 309 308 307 306 303 298 296 307 307 307 308 307 306 305 304 303 303 303 303 303 303 303 304 304 304 304 303 302 302 302 302 301 301 300 299 298 299 298 297 297 298 299 299 299 300 300 301 302 303 304 304 304 306 306 307 309 309 309 309 309 311 310
325 324 324 324 323 324 323 322 321 321 321 320 318 317 316 317 316 317 319 316 316 314 314 310 309 307 302 296 296 294 304 308 307 307 306 306 305 305 304 303 303 303 302 302 303 304 304 305 304 303 302 301 301 301 301 299 298 296 296 296 296 295 295 295 297 298 299 299 301 302 302 303 304 304 304 303 306 308 308 308 307 308 307 308 308
325 324 325 324 323 322 320 320 321 319 319 318 318 319 319 319 315 315 315 315 313 313 311 309 308 308 306 301 302 299 306 306 306 306 306 304 304 303 303 302 302 303 304 303 303 304 305 303 303 302 302 301 302 300 299 298 297 295 294 294 294 294 293 293 295 296 297 298 300 302 302 303 303 302 302 304 305 307 307 307 307 306 306 307 307
323 323 323 322 321 321 321 320 318 318 317 318 317 317 316 314 315 315 314 313 312 311 310 309 309 307 306 304 303 305 306 305 305 305 305 306 304 303 304 305 304 304 304 303 303 304 303 303 302 302 303 301 302 302 299 298 296 294 293 292 292 293 291 291 293 294 296 297 299 300 301 302 303 301 302 303 303 304 304 305 306 305 305 305 306
323 321 320 319 319 319 318 319 317 317 316 316 315 314 314 314 314 313 313 313 313 312 310 309 309 308 306 306 306 306 305 304 304 305 305 305 304 305 305 305 305 306 304 304 304 304 303 302 301 301 301 300 301 300 299 298 297 294 292 291 290 290 289 290 291 294 296 297 297 298 300 302 301 300 301 302 302 302 302 303 304 305 304 304 304
321 320 320 320 318 318 317 317 317 316 315 314 313 313 313 313 313 312 311 311 309 308 309 308 308 307 306 305 305 305 305 305 304 304 304 304 304 305 305 306 305 304 303 302 303 302 301 302 300 300 300 301 299 298 298 297 295 294 292 291 289 289 289 290 292 294 295 295 295 296 299 301 301 300 301 301 301 301 301 302 303 303 303 303 304
320 319 318 317 316 316 316 317 316 315 315 314 314 312 311 312 311 311 311 309 308 308 307 307 306 305 304 305 305 306 305 304 304 304 304 305 305 305 305 303 305 304 302 302 303 302 302 301 301 300 299 300 299 298 297 295 294 292 292 290 289 288 288 288 291 294 294 294 295 296 299 301 301 300 300 301 301 300 301 301 302 302 302 302 302
318 317 316 316 316 315 316 315 312 312 311 311 311 311 311 310 312 309 309 309 307 307 307 307 306 305 306 305 305 305 304 304 305 305 305 304 304 304 303 303 303 303 302 302 301 301 300 300 301 301 301 300 299 297 296 294 293 292 290 289 289 288 287 288 290 292 291 292 294 296 298 301 301 301 298 299 300 301 300 299 301 301 301 301 301
315 314 314 313 313 313 314 312 312 311 311 310 310 310 309 308 309 308 308 307 306 306 306 306 306 305 304 305 305 304 305 305 304 304 304 305 305 304 303 302 301 302 302 301 301 302 302 300 300 300 300 301 299 297 294 293 291 291 289 288 287 287 286 286 288 289 289 292 293 295 298 301 301 302 300 299 299 300 300 300 300 301 300 301 301
314 314 313 313 313 312 313 312 311 311 311 310 309 309 309 308 308 308 307 306 305 305 305 306 305 305 304 304 304 304 305 303 303 303 304 304 304 304 302 302 302 302 303 302 301 301 302 302 301 300 300 300 298 296 294 292 292 290 289 287 285 285 286 286 288 288 288 290 291 294 298 301 300 300 299 298 299 299 299 299 300 300 299 299 300
314 313 313 313 313 313 312 311 311 310 310 310 309 309 308 306 306 307 307 306 306 306 305 305 305 304 304 304 305 304 304 304 305 304 304 303 303 302 302 301 301 301 301 300 302 300 300 301 300 300 300 299 297 295 294 293 292 290 286 285 285 285 285 286 287 286 287 288 291 295 299 300 300 298 298 297 298 298 298 299 300 299 298 298 299
Wind_Speed
8 7 6 6 5 6 5 5 5 4 4 4 4 3 4 4 2 4 3 3 3 4 4 4 4 4 5 5 5 5 5 5 4 3 4 4 4 4 4 3 3 4 3 3 2 3 2 3 4 4 4 4 5 6 7 8 9 8 8 9 9 8 9 9 12 15 13 8 11 10 10 10 11 8 10 10 9 9 11 10 11 10 10 9 9
7 7 5 5 6 6 6 6 6 5 6 5 5 4 6 6 6 5 6 5 6 5 4 4 3 4 5 5 5 5 6 6 5 4 4 3 5 5 5 4 4 4 4 3 3 3 2 3 4 4 3 3 5 6 6 7 8 9 9 9 9 9 8 9 12 13 17 10 10 8 10 10 11 9 10 10 9 9 9 9 8 9 9 9 9
8 7 6 5 6 6 5 5 5 6 6 5 6 7 8 9 8 6 6 4 3 3 3 4 4 4 5 5 6 6 5 5 3 3 3 4 5 5 5 5 5 5 4 3 3 2 2 3 4 4 3 3 4 5 6 6 7 8 9 9 10 10 10 10 10 13 16 15 10 11 10 9 10 11 11 11 12 10 11 11 10 9 8 10 9
11 7 7 6 6 6 5 4 6 7 8 5 7 6 5 6 3 3 2 2 2 2 4 6 5 6 6 6 6 6 5 4 3 4 3 3 3 3 4 4 6 6 5 4 4 3 3 3 3 4 3 3 4 4 5 5 6 7 8 8 9 11 11 10 11 12 13 16 12 11 9 9 9 10 10 10 12 11 10 10 10 10 9 9 10
12 11 10 10 8 6 7 7 6 6 6 6 7 7 7 5 3 2 3 3 3 3 3 3 3 4 5 3 4 4 4 4 4 4 4 2 3 4 4 5 6 5 5 4 4 3 3 4 4 3 2 3 4 5 4 7 7 7 7 8 9 9 9 10 11 11 13 15 14 11 9 9 8 8 9 9 10 12 10 11 10 11 10 9 9
12 12 12 10 8 8 7 7 8 8 7 7 7 4 3 2 5 5 2 3 3 3 3 3 4 5 4 4 4 4 5 3 3 4 5 4 4 4 4 5 6 6 5 5 5 4 4 4 4 3 2 4 5 5 5 7 7 7 8 8 9 9 11 12 11 12 12 14 14 13 8 9 9 9 8 9 10 10 9 9 10 9 9 9 9
7 10 10 10 9 9 9 8 6 6 5 5 4 4 5 6 4 5 4 5 6 6 5 6 4 4 4 3 3 3 4 4 4 5 5 5 5 4 4 5 6 6 6 6 6 6 5 5 4 4 3 3 5 5 6 7 7 8 8 9 10 11 11 11 12 12 12 13 14 12 11 10 10 11 9 8 9 8 9 7 9 8 9 11 9
9 7 7 4 7 8 7 7 7 6 5 4 3 2 2 1 2 2 3 6 7 6 7 5 4 3 4 5 5 5 5 5 3 5 5 5 5 4 4 5 6 7 7 7 7 6 6 6 6 4 3 4 5 5 6 7 6 8 8 8 10 11 11 10 11 11 11 12 12 12 10 10 9 10 9 8 8 10 9 7 9 9 9 9 9
9 8 6 5 4 4 4 4 5 5 5 4 3 4 3 2 3 3 3 4 5 7 6 6 4 5 5 6 6 4 4 4 3 2 4 5 5 5 4 5 7 7 7 8 7 7 6 6 7 6 5 7 10 9 9 8 6 8 9 9 11 12 12 11 11 10 10 10 12 11 11 10 9 9 10 10 12 11 7 8 8 8 8 8 8
7 7 7 6 5 5 4 4 4 4 4 5 4 4 3 4 4 4 4 4 5 5 5 5 7 6 5 3 4 4 4 2 3 3 6 4 5 4 5 6 6 7 7 7 8 7 7 6 7 11 10 10 11 12 13 13 12 9 9 9 11 10 11 13 11 10 10 11 11 11 12 11 10 11 12 10 9 9 9 9 10 8 8 9 8
8 8 7 7 6 6 6 6 5 5 5 5 4 4 4 4 3 4 4 5 5 5 6 7 6 4 5 5 6 5 1 1 5 8 10 10 7 6 6 6 6 6 6 6 7 7 6 5 6 8 8 8 9 12 12 12 12 13 15 15 14 13 10 10 11 11 11 10 11 11 11 13 13 11 11 12 10 11 10 9 10 9 8 8 10
10 8 7 6 7 7 7 7 7 6 6 6 5 5 4 4 4 4 5 6 6 5 5 4 4 4 4 5 4 3 2 5 9 10 11 11 9 7 6 5 5 6 6 7 6 7 7 6 6 6 5 6 7 9 10 10 10 11 13 15 17 19 16 13 13 10 10 11 12 12 12 12 13 12 11 12 11 11 11 11 11 11 10 11 10
9 9 8 7 7 7 7 7 7 6 6 5 5 4 4 5 5 5 6 5 5 4 5 4 3 3 4 3 4 4 4 8 9 9 10 11 12 10 6 6 6 6 6 6 7 7 7 6 6 5 7 10 9 8 8 7 9 11 13 16 16 16 16 17 16 14 12 12 12 12 11 12 14 13 13 12 9 10 10 11 10 9 9 9 11
9 10 9 8 8 8 8 8 7 7 6 6 5 5 4 4 5 4 4 3 4 6 5 4 4 4 4 4 4 4 5 7 12 11 10 11 12 9 6 7 7 7 6 6 8 8 8 6 7 8 7 8 9 11 10 7 8 8 11 11 12 15 17 17 17 17 12 10 12 13 14 12 14 13 13 12 12 11 11 11 10 10 11 13 12
8 9 10 10 9 9 9 8 8 7 6 5 4 5 5 4 5 5 5 5 4 4 5 4 3 4 4 4 4 5 6 6 9 8 9 11 12 8 6 7 7 6 6 6 8 7 5 6 5 9 8 8 9 12 10 7 6 8 9 10 12 13 14 14 14 14 14 15 15 16 16 15 15 16 15 13 15 12 10 11 10 12 13 11 11
11 10 10 10 10 10 8 7 6 6 5 4 4 4 5 4 3 2 4 5 5 5 5 4 5 4 4 5 5 5 5 7 8 11 11 9 7 5 6 7 8 7 6 6 6 3 2 4 6 7 8 9 12 15 9 6 6 10 9 11 12 13 12 12 16 15 15 16 16 18 19 21 20 17 13 12 11 12 11 10 6 7 6 5 9
11 11 10 10 10 9 9 7 7 6 6 5 5 4 3 4 5 2 3 6 7 6 5 6 5 4 4 6 6 5 6 8 11 9 6 6 3 4 6 7 6 6 6 6 3 2 3 5 7 7 9 9 12 11 8 6 7 9 8 10 10 11 12 14 16 18 20 24 26 28 29 29 30 29 26 28 22 15 11 11 12 8 8 9 9
9 9 9 9 8 9 9 8 8 7 6 6 5 4 3 3 2 5 6 8 7 7 6 5 5 4 5 6 9 7 8 6 8 9 8 7 3 3 5 6 7 7 6 5 5 6 7 12 9 8 8 8 9 6 7 6 6 6 7 10 12 12 12 13 13 17 23 24 25 27 27 28 29 30 28 25 25 19 13 13 10 8 9 9 10
10 9 9 7 7 7 7 7 6 6 6 5 4 4 5 5 5 4 5 6 6 5 3 6 6 5 8 10 8 9 7 8 6 7 5 3 2 3 5 5 6 6 6 5 6 6 7 7 13 10 7 9 9 7 7 5 5 5 7 9 11 13 15 17 17 16 19 21 19 19 15 17 18 15 17 25 26 21 14 14 11 10 9 10 12
10 9 8 7 6 5 5 5 6 5 5 4 4 4 1 1 2 3 5 5 5 4 5 5 7 7 8 9 8 8 8 3 5 4 3 3 3 2 4 5 6 6 5 5 7 7 5 4 4 10 7 4 5 7 8 5 4 5 6 9 11 15 16 16 18 18 19 20 19 19 18 10 8 12 12 15 17 18 15 16 14 11 10 10 9
8 7 7 7 7 7 5 5 6 5 4 3 2 2 1 2 2 3 5 6 4 5 5 6 7 7 7 12 14 12 9 6 3 6 5 4 3 1 3 4 5 6 6 6 6 7 6 4 5 4 3 5 6 6 7 8 6 5 6 8 11 16 17 14 20 22 18 20 18 16 14 8 9 10 10 11 14 13 14 15 15 11 10 10 11
6 6 7 6 6 6 6 5 6 5 4 3 3 2 2 2 3 4 4 3 4 5 7 6 6 8 9 5 5 6 9 15 9 7 6 5 0 4 2 4 5 6 7 7 7 7 5 4 5 1 4 6 7 7 7 7 9 6 10 13 17 18 16 14 14 14 15 15 15 15 14 13 13 7 9 11 12 13 13 14 15 14 12 11 9
3 4 4 4 5 5 4 5 5 5 5 4 4 2 4 7 9 12 6 4 4 6 6 6 4 4 2 3 0 1 3 5 9 8 8 6 3 3 5 5 8 5 6 7 7 7 6 6 5 5 8 7 7 7 7 9 6 9 15 15 16 18 15 12 14 14 15 15 16 14 14 15 13 11 6 9 11 11 12 13 12 12 10 10 9
8 5 2 2 4 4 5 8 4 4 5 5 4 4 4 3 4 8 7 4 5 5 5 5 3 2 1 2 0 2 2 3 5 7 9 9 10 8 7 8 7 5 6 7 7 7 7 4 7 11 10 9 9 7 7 5 7 13 14 15 15 14 10 12 12 14 15 15 17 17 16 15 15 13 11 5 9 10 10 10 10 11 11 9 9
3 4 4 5 4 2 3 5 5 5 5 5 5 2 1 5 4 5 5 4 4 4 4 3 2 1 1 1 1 2 3 1 1 3 6 12 12 11 14 13 14 8 5 6 7 6 7 13 14 12 10 10 9 7 3 5 11 12 13 14 12 8 10 10 12 12 14 16 15 16 15 16 13 12 13 10 6 4 6 7 8 9 9 10 10
6 6 7 5 2 6 6 7 4 6 4 3 3 2 2 1 3 3 3 4 5 5 3 1 1 3 1 0 1 1 2 2 3 5 8 9 9 12 14 14 12 13 10 7 10 12 14 13 12 11 9 5 3 3 4 5 8 10 11 13 9 9 9 10 11 11 13 14 15 16 17 16 15 12 13 16 13 8 3 5 8 9 9 8 8
5 5 4 4 2 1 6 6 5 4 4 2 3 4 4 4 4 5 5 3 3 4 4 3 2 3 3 3 2 1 2 4 5 6 6 7 7 8 9 8 11 10 9 6 7 7 9 9 6 7 6 6 3 0 1 3 6 7 7 8 8 8 8 8 9 10 11 12 13 14 14 14 13 15 16 14 13 13 9 3 5 6 7 7 7
3 3 7 8 5 5 5 7 5 3 4 2 1 1 3 4 2 4 5 4 3 3 4 4 4 3 3 2 2 2 2 4 5 5 5 6 6 6 7 7 7 7 7 7 7 8 8 8 6 4 5 4 5 5 5 4 4 6 6 8 8 8 9 12 12 10 10 10 11 11 13 14 14 14 13 13 13 13 12 8 2 4 4 5 5
10 9 6 4 3 3 4 4 4 3 3 4 7 6 5 4 4 6 6 4 3 3 4 4 4 5 3 4 3 2 3 4 3 2 3 2 2 4 6 6 7 7 8 11 9 7 5 3 6 6 6 6 6 6 6 6 6 6 7 8 8 9 8 9 10 10 10 10 11 12 12 12 13 13 11 12 14 13 13 12 12 8 4 2 3
5 6 5 4 4 4 3 2 1 2 3 3 6 6 9 10 8 5 5 7 11 11 9 5 3 4 5 5 5 4 3 2 1 4 4 3 4 7 10 12 11 9 12 18 7 3 5 6 5 6 5 5 6 6 7 7 7 8 7 7 8 8 9 9 9 10 10 10 10 11 12 12 12 12 12 12 12 13 13 13 12 11 12 10 9
2 4 4 5 1 6 7 5 3 2 2 3 5 8 5 9 14 14 12 8 9 9 10 9 11 11 6 5 6 9 5 1 2 3 4 5 5 8 11 13 13 14 14 9 5 6 6 6 6 6 6 5 6 6 7 7 8 8 8 8 6 9 9 9 10 10 9 10 10 11 11 11 12 11 12 12 12 11 10 10 9 10 11 9 11
2 3 3 2 4 2 3 1 2 3 3 2 1 5 7 6 6 8 7 9 9 9 9 10 10 11 12 10 5 3 4 4 5 6 5 5 6 7 11 12 13 14 15 6 4 6 5 6 6 6 6 6 6 6 7 7 7 7 8 8 8 8 10 10 11 11 10 9 10 10 11 11 11 12 12 11 10 10 10 11 10 11 9 9 11
4 4 1 1 1 2 2 2 1 3 2 1 2 1 2 6 7 6 5 5 5 8 8 7 8 9 9 9 8 6 3 3 4 3 3 4 5 9 10 9 10 13 11 6 5 6 6 6 6 6 7 7 7 7 7 8 8 8 7 8 9 8 8 8 9 8 9 9 9 9 10 11 11 11 11 11 11 11 10 11 10 10 9 9 10
3 3 3 1 2 4 4 3 3 2 2 1 3 2 3 3 5 8 7 5 3 2 3 5 4 4 3 2 6 4 1 4 5 5 5 6 3 6 8 6 7 9 5 7 7 6 6 6 6 7 7 7 7 7 7 7 8 7 8 8 8 8 8 8 9 10 9 10 10 10 9 9 10 10 11 11 11 10 10 10 10 10 10 10 10
2 4 2 1 3 3 3 4 3 1 1 2 3 2 2 3 2 3 6 7 6 6 5 3 4 6 3 3 4 1 2 4 7 9 8 10 12 9 3 1 1 3 7 7 7 6 6 6 6 6 6 7 7 7 7 7 7 8 8 8 8 8 8 8 9 9 9 9 10 10 10 9 9 9 9 10 11 12 11 11 10 9 9 8 9
3 3 3 3 3 3 2 2 4 4 3 1 1 2 3 2 0 3 2 2 4 6 5 5 5 6 8 7 4 4 4 3 7 8 10 11 11 11 6 6 5 5 5 5 5 6 5 5 5 5 5 5 5 5 5 6 6 7 7 8 8 8 8 8 9 9 9 8 8 9 9 9 9 9 8 9 10 10 10 11 10 10 10 8 7
2 2 2 2 2 3 4 4 4 4 5 3 3 3 2 1 1 2 3 3 3 5 6 6 6 3 3 4 3 6 5 4 5 8 9 11 6 6 5 5 5 4 4 5 5 4 4 4 4 4 4 5 5 5 5 5 5 5 7 6 6 7 8 7 8 9 9 9 9 9 9 10 9 10 9 9 9 9 10 10 10 10 10 10 8
3 3 1 1 1 5 5 3 2 4 4 3 3 1 2 3 1 1 3 3 2 4 5 4 4 3 2 4 6 4 2 4 3 6 8 7 5 4 5 4 5 5 4 4 4 3 3 4 4 4 5 5 6 6 6 6 5 5 6 6 6 6 8 8 8 8 8 8 9 10 9 9 9 9 9 9 9 9 10 9 9 9 9 11 9
5 4 4 6 2 3 3 4 5 3 3 3 3 3 4 3 3 2 2 3 3 4 3 4 4 4 4 5 5 6 6 0 0 2 3 4 4 4 3 4 4 4 4 4 4 4 4 4 4 4 5 5 5 5 6 6 6 5 5 6 7 7 8 7 8 8 8 8 8 9 9 9 9 9 9 8 9 9 9 9 9 9 9 9 9
3 2 1 3 1 5 4 2 2 2 4 3 4 4 3 3 3 2 3 4 4 4 3 3 4 5 4 5 5 7 5 3 2 3 3 4 4 4 3 4 4 4 4 4 3 3 4 3 3 4 4 4 5 5 5 6 6 5 6 5 6 7 7 6 7 7 8 8 7 8 9 9 9 9 9 8 8 8 9 9 9 9 8 8 9
3 3 2 4 2 1 3 3 3 3 4 4 4 4 3 3 3 4 3 2 4 3 3 4 4 5 4 4 8 7 6 2 2 1 1 3 3 3 3 3 3 3 3 4 4 3 3 3 3 4 4 4 4 5 5 5 5 6 6 6 6 7 7 7 7 7 7 7 7 7 8 8 9 9 10 9 8 7 7 8 8 9 9 8 10
4 3 3 2 2 3 4 5 6 6 5 5 4 4 4 5 3 1 0 3 4 3 2 5 6 5 4 2 7 10 7 2 2 1 1 1 2 2 2 3 3 3 3 4 4 4 3 3 3 4 4 4 5 5 5 6 7 7 7 7 7 7 8 8 8 8 8 8 8 7 7 7 7 8 9 9 8 7 7 8 8 7 7 8 8
4 4 3 3 2 4 5 4 4 5 5 5 3 2 2 3 2 2 3 4 3 4 4 5 4 4 5 4 4 5 5 1 0 3 1 2 1 1 2 2 2 2 2 3 3 3 3 3 3 4 4 4 4 5 5 6 6 7 7 8 7 8 8 8 8 9 9 9 9 8 7 7 6 7 8 8 9 8 8 8 8 8 8 8 7
4 4 4 3 4 4 4 5 4 3 2 3 3 2 3 3 3 4 4 4 3 1 6 5 5 5 6 5 4 5 3 0 1 2 2 2 3 3 3 2 2 2 2 2 2 2 3 3 3 4 3 4 3 4 5 6 6 7 7 7 7 8 8 8 8 9 9 9 9 9 8 7 7 6 7 7 8 8 8 8 8 7 7 7 8
4 4 4 4 4 4 4 4 4 4 4 4 4 5 5 5 5 4 4 4 2 2 2 5 6 4 3 2 2 3 1 1 1 3 4 3 2 3 3 5 6 3 2 3 2 2 3 3 3 3 4 4 4 4 5 6 6 7 7 7 7 8 8 8 8 8 9 9 9 9 9 8 7 7 7 7 7 7 7 7 7 7 7 7 8
3 4 4 3 5 5 5 5 6 6 6 6 6 6 6 5 4 4 3 2 4 3 1 1 2 2 1 1 3 5 4 3 3 3 2 2 5 3 5 2 4 4 3 3 2 3 2 3 3 3 4 4 4 5 5 5 6 6 7 7 7 6 6 7 7 8 8 9 9 9 9 7 7 7 10 8 6 7 6 7 6 6 6 7 7
3 4 6 5 5 6 5 5 4 2 4 4 2 1 1 4 5 3 2 2 3 1 1 3 4 5 5 6 7 7 4 3 3 4 5 5 3 5 2 3 1 3 3 2 2 2 2 3 3 3 3 3 4 5 5 6 6 6 6 6 6 6 6 7 7 7 8 8 8 8 9 7 7 6 9 9 7 7 7 7 7 6 6 7 6
5 4 4 4 3 2 2 3 3 2 2 2 3 4 3 3 1 2 1 2 1 4 6 7 7 8 6 5 4 3 2 2 3 4 3 7 7 2 4 1 1 1 3 2 3 2 3 3 2 3 3 3 4 5 5 6 6 6 6 6 6 6 8 10 7 7 7 8 8 9 9 7 7 6 7 8 7 7 7 7 7 6 6 6 6
1 2 2 2 1 2 2 3 3 3 4 4 5 6 3 4 4 4 4 2 3 5 6 9 3 5 4 1 4 4 3 4 4 4 1 1 4 3 2 2 1 1 1 3 3 2 3 2 2 2 3 3 4 5 6 6 6 6 6 5 7 13 12 12 8 7 11 8 8 8 8 6 7 7 7 8 8 7 7 7 7 7 6 6 6
3 3 4 4 5 5 5 5 6 7 7 6 5 5 7 7 7 7 7 7 6 5 6 5 3 4 3 4 3 3 4 3 2 1 2 2 3 3 3 2 1 2 2 3 3 2 2 3 3 2 2 3 5 6 6 6 5 5 5 5 9 10 12 13 11 12 9 7 8 7 7 6 7 6 6 7 8 8 8 7 8 7 7 7 7
6 6 5 5 5 4 5 6 7 7 6 5 6 6 7 6 6 7 9 6 4 5 4 4 5 4 5 5 5 4 1 2 1 2 2 3 3 3 3 3 3 2 2 1 3 4 2 1 2 2 3 4 6 7 6 5 4 4 4 8 10 11 12 11 9 13 15 11 7 7 6 7 7 7 6 7 7 7 9 9 8 7 7 7 6
Wind_Direction
163 169 171 177 175 166 180 178 194 192 189 194 193 209 224 229 234 227 232 206 214 230 241 239 255 267 271 275 287 292 286 285 292 296 282 283 289 281 277 276 284 283 282 298 317 292 307 321 324 319 317 318 322 322 320 320 316 310 312 308 301 298 293 283 281 282 277 250 258 256 256 253 258 246 254 254 238 224 216 219 220 214 214 211 214
167 163 177 175 176 179 189 183 191 196 198 190 205 202 221 228 213 204 217 215 200 216 227 242 249 259 273 281 284 297 293 293 301 299 284 294 292 290 286 289 280 284 291 309 310 299 317 317 308 306 321 322 318 315 315 314 314 314 310 305 303 302 302 298 292 288 286 281 261 252 254 239 252 239 249 254 246 232 211 214 214 209 210 209 211
168 159 174 177 178 179 188 188 193 200 201 205 216 218 231 220 214 217 224 229 219 212 217 222 223 235 252 255 259 264 277 283 285 278 287 270 273 286 302 296 296 285 288 294 294 306 304 308 303 305 317 321 319 308 312 311 312 307 306 307 308 310 308 301 297 292 286 278 264 265 253 242 232 242 235 242 249 234 219 217 214 211 211 207 213
169 158 168 184 183 181 184 196 202 207 209 210 220 234 255 274 209 190 173 251 254 245 236 235 228 229 235 246 246 246 250 270 263 265 273 294 308 300 289 296 285 281 284 285 290 291 295 292 294 306 326 320 306 298 303 303 303 305 305 307 309 308 307 305 305 302 293 283 271 258 254 245 237 236 238 240 245 238 220 218 214 210 205 201 208
163 166 181 185 190 181 184 193 206 219 231 229 227 229 242 266 40 267 236 239 255 264 281 296 272 249 245 254 273 272 250 233 243 254 257 263 278 276 271 264 270 282 285 286 283 281 285 281 289 294 306 296 292 294 292 301 303 303 304 305 301 305 307 307 304 302 300 289 280 264 257 252 247 240 230 236 240 243 229 223 215 211 210 203 203
158 169 183 189 178 181 189 199 206 211 214 219 231 250 303 340 263 263 4 342 316 295 295 289 269 260 247 242 246 262 276 234 208 231 249 243 243 252 256 266 274 280 283 284 280 276 277 280 280 276 275 284 287 289 298 305 303 302 306 302 303 304 307 307 304 304 301 294 284 275 256 254 253 247 236 232 241 243 237 226 229 217 207 210 212
160 167 188 183 177 181 186 193 204 221 213 218 229 237 236 255 311 2 328 322 323 305 283 269 276 295 291 285 295 304 289 278 202 216 229 224 225 238 257 274 280 277 278 280 279 277 272 276 266 255 267 273 280 285 293 298 295 299 297 300 302 304 305 305 304 303 301 297 292 275 267 257 251 254 239 232 242 247 243 226 230 218 209 209 213
160 179 179 182 166 176 188 185 193 205 215 211 211 221 259 291 300 330 326 291 286 289 286 292 302 315 327 316 298 284 275 268 217 214 231 232 231 239 247 262 276 278 281 281 279 274 270 266 265 261 247 251 261 270 272 280 286 292 292 290 300 304 306 304 303 300 299 298 290 284 264 261 250 247 250 241 246 244 237 226 225 217 214 213 209
160 170 169 172 165 170 174 187 186 188 201 203 195 206 215 221 214 225 237 277 272 278 287 296 303 296 282 268 263 265 285 294 290 219 223 233 231 243 256 262 263 273 277 279 278 273 265 262 261 251 240 247 259 261 260 258 273 281 288 286 294 301 302 301 298 294 296 292 292 287 276 262 251 246 244 237 231 236 227 226 236 216 215 214 219
160 171 173 173 169 175 184 192 186 195 199 196 193 205 214 211 224 219 234 257 274 266 277 284 282 272 278 310 309 301 285 25 106 208 224 230 226 240 251 259 271 272 275 275 274 269 265 265 268 269 255 251 261 263 258 255 251 255 273 285 293 295 296 299 294 292 293 295 295 297 290 272 259 245 242 236 233 231 230 225 233 225 209 217 216
171 171 173 173 174 178 187 190 195 196 201 203 203 212 216 229 225 228 230 237 249 259 253 257 270 289 296 289 280 271 299 157 217 240 249 240 238 237 244 256 263 268 274 281 280 280 273 269 267 268 259 246 255 252 249 252 261 272 274 274 279 286 293 286 280 280 286 285 289 286 284 286 277 262 250 246 232 226 226 224 227 226 222 214 219
175 168 177 174 176 185 189 194 192 197 198 200 207 206 221 221 229 231 232 240 242 242 256 259 261 261 258 268 290 316 211 200 215 237 241 240 230 238 250 257 261 270 275 280 287 290 289 283 279 273 266 262 270 280 276 265 267 279 285 290 293 290 275 270 282 281 275 282 282 280 282 280 284 278 258 245 239 230 229 224 220 220 218 216 216
170 170 180 181 188 191 193 195 191 193 192 203 205 211 213 224 235 241 245 243 249 259 261 255 270 279 274 247 247 250 261 202 215 217 227 228 231 236 251 256 260 266 278 286 293 291 293 292 286 292 297 284 271 273 276 292 297 297 296 296 296 296 300 293 276 264 272 272 272 270 261 269 269 267 270 259 246 245 229 224 215 215 218 228 229
169 175 179 189 190 194 197 195 195 191 196 197 199 205 216 232 242 250 261 259 254 251 247 252 251 258 242 240 255 258 268 214 208 218 227 233 238 237 248 257 262 268 278 293 296 293 286 304 326 311 313 314 302 293 292 296 303 307 307 308 307 307 309 306 301 294 277 270 272 266 265 263 265 268 266 266 255 243 239 232 205 210 214 215 220
186 175 186 189 193 192 194 193 189 193 196 197 198 204 216 224 240 240 239 252 269 266 254 255 261 262 206 245 246 256 260 234 199 214 226 235 242 242 257 261 264 264 266 276 283 299 1 42 285 281 289 292 285 282 287 293 303 305 299 301 307 306 306 309 310 310 306 300 292 286 278 268 265 263 260 254 255 254 243 241 219 207 214 220 224
185 182 186 191 194 193 191 185 183 192 193 195 204 218 219 219 231 276 306 286 258 255 261 258 251 260 229 233 252 243 265 173 202 210 221 227 245 255 253 254 254 254 258 270 284 338 96 246 267 274 274 269 268 273 286 314 308 308 296 299 304 302 296 293 287 288 292 292 283 279 277 271 265 262 264 265 261 254 242 248 217 227 227 247 241
184 183 190 189 190 187 185 183 184 185 188 198 216 228 231 216 222 170 254 249 249 251 251 256 250 250 271 274 266 254 274 229 218 227 212 220 208 247 255 258 262 261 265 271 274 288 212 233 240 246 259 264 274 293 308 326 307 304 296 300 299 293 293 301 292 294 291 285 277 269 261 257 255 254 252 257 257 264 270 241 233 204 202 207 212
190 188 192 190 184 181 179 184 182 181 183 196 200 214 226 216 190 168 225 246 251 255 258 257 259 248 257 270 273 281 268 260 211 186 191 179 204 276 280 272 262 261 270 279 278 277 249 235 232 239 251 262 284 338 315 331 300 294 300 304 302 298 295 303 310 307 298 288 283 276 264 250 242 242 242 239 248 247 239 241 225 203 209 209 217
190 192 191 188 185 181 180 179 180 180 185 186 197 223 227 217 212 194 234 251 254 255 279 280 267 253 253 256 260 261 272 272 197 195 192 140 152 266 268 268 272 264 265 275 283 275 268 227 234 241 248 288 324 315 308 314 290 287 305 306 305 305 309 319 312 306 314 318 314 311 283 242 233 232 229 230 233 236 226 236 227 215 206 214 220
183 185 188 185 185 183 177 173 174 185 180 169 193 212 203 352 323 295 273 265 265 266 259 274 282 288 293 281 286 274 274 310 100 122 86 86 124 283 274 273 278 282 281 287 286 280 278 302 238 217 250 264 296 300 305 303 292 303 309 305 308 311 317 314 310 316 319 322 319 315 312 284 244 216 218 222 227 226 222 224 222 209 203 213 209
176 179 175 176 179 184 177 173 173 168 172 182 170 127 167 223 259 266 272 280 290 289 284 278 285 279 325 354 352 329 352 339 339 58 61 62 50 271 299 295 304 300 300 290 284 287 293 295 324 125 40 335 323 309 305 307 319 313 303 311 311 303 313 318 319 323 324 327 327 322 326 312 261 230 203 207 214 210 211 219 222 198 200 215 215
165 168 173 179 180 179 183 163 162 164 139 132 141 169 154 223 249 269 281 299 311 309 299 283 282 24 15 12 321 359 328 330 320 347 38 47 1 260 289 318 326 319 301 291 283 285 296 306 315 112 351 332 326 310 304 316 324 323 320 315 315 323 326 319 319 325 323 332 332 331 341 348 337 247 204 203 198 204 204 210 215 214 208 211 211
121 153 167 181 185 174 161 135 128 141 158 146 115 130 64 41 2 317 288 287 287 284 291 300 343 82 161 262 154 321 303 288 318 328 7 356 22 230 265 287 317 298 284 289 295 298 296 298 312 341 335 319 307 301 301 323 337 334 322 327 331 333 336 331 328 329 330 333 336 339 349 350 346 336 233 194 197 197 202 206 205 208 213 215 217
21 11 355 188 169 175 161 143 152 115 111 114 118 98 107 150 183 257 278 272 273 285 303 317 315 84 18 359 351 261 259 304 356 12 315 343 339 346 332 306 279 268 286 280 285 283 282 315 312 306 306 303 295 290 306 339 354 337 338 339 343 348 343 337 334 332 332 335 338 348 350 347 347 347 333 268 196 193 200 202 206 207 210 219 220
34 11 355 337 295 235 90 102 102 91 106 99 83 61 194 197 205 213 246 266 271 260 252 262 352 116 274 260 260 273 278 262 70 293 351 12 352 355 342 327 314 292 254 267 261 268 315 309 303 302 299 295 289 291 311 16 355 344 346 351 353 358 347 341 336 335 338 341 339 339 348 349 339 345 347 350 325 209 187 214 211 211 213 210 218
34 14 357 321 34 80 76 36 49 108 95 81 119 209 286 164 190 213 228 241 242 245 239 192 89 312 313 73 51 335 306 343 353 27 19 359 346 342 330 320 320 333 318 264 274 291 287 285 290 294 294 286 319 5 26 16 348 340 354 360 2 355 351 343 341 339 344 339 340 344 344 345 350 341 5 18 6 326 259 213 212 211 209 207 207
52 13 8 336 306 286 110 191 184 136 105 121 223 203 193 205 221 238 235 266 316 312 313 322 340 328 343 350 12 329 34 79 39 13 13 359 349 341 335 341 344 341 331 343 346 320 310 302 301 309 317 325 1 52 191 350 341 353 5 3 1 355 346 348 335 338 344 338 336 341 342 347 344 4 17 12 11 358 319 257 231 225 198 208 209
111 209 216 219 223 202 171 104 115 131 151 209 252 55 297 271 284 47 47 20 5 352 342 348 338 337 334 3 340 330 29 62 33 12 356 352 348 338 334 335 340 337 328 329 323 308 298 294 299 11 17 28 18 5 3 349 341 349 5 4 359 351 347 344 350 352 347 335 332 338 347 349 2 4 3 11 14 11 359 355 287 237 224 187 191
174 190 194 222 161 94 111 171 175 183 97 87 65 35 3 2 57 88 39 23 22 20 349 352 10 340 19 29 342 5 59 48 22 344 302 332 313 326 332 333 331 322 310 306 301 286 278 330 31 13 9 13 2 2 348 348 352 351 1 358 1 358 354 0 351 344 338 341 343 348 350 352 358 4 360 4 15 10 1 17 19 25 28 238 208
188 208 210 198 177 176 209 227 36 102 169 158 115 90 57 42 30 70 92 56 59 53 61 60 13 338 73 54 29 35 32 22 316 273 280 297 271 262 270 279 285 291 292 298 268 275 2 19 24 24 5 17 9 5 354 352 350 350 354 357 360 359 357 354 351 338 338 344 345 351 351 351 354 2 9 8 9 9 5 18 19 28 45 36 48
208 237 219 238 205 169 201 220 176 196 207 242 169 139 120 54 46 62 80 80 71 74 81 75 55 39 47 111 90 90 106 131 328 315 322 299 284 281 284 290 307 316 311 327 350 16 17 19 18 17 8 15 18 7 357 353 353 350 351 348 354 2 353 356 350 339 339 347 349 355 351 353 354 355 10 14 12 3 360 14 17 29 38 36 47
214 252 270 73 88 354 304 279 197 198 219 196 183 151 139 122 90 46 65 80 78 73 70 72 74 72 64 65 73 81 63 13 351 337 323 287 268 264 274 289 305 315 311 321 21 32 21 28 20 15 8 10 12 5 360 358 351 354 349 343 352 4 356 354 347 339 337 350 354 353 356 356 355 355 2 9 10 5 7 16 17 22 22 33 45
241 250 173 82 79 274 259 115 194 256 272 225 187 157 216 150 132 118 70 54 78 94 88 71 70 84 87 92 99 126 163 274 325 321 306 272 257 247 250 272 286 313 347 32 34 34 23 27 24 12 9 9 7 4 4 357 353 349 350 352 350 357 350 344 337 339 348 351 351 356 355 359 357 356 360 1 7 9 8 16 14 16 17 23 30
242 253 276 222 163 173 204 194 250 193 155 51 321 255 213 260 142 137 141 147 116 47 79 82 102 96 92 154 152 153 135 17 343 339 350 355 312 278 242 248 260 275 356 40 38 41 33 25 23 17 11 14 8 6 3 2 354 350 354 353 351 354 344 345 348 351 353 356 358 353 353 360 4 0 360 0 3 3 9 17 16 15 18 21 26
235 257 184 218 277 270 229 232 224 278 79 155 194 223 330 96 87 174 174 166 167 158 159 171 205 236 247 246 255 257 19 322 332 335 351 2 350 353 149 236 33 36 42 44 48 46 39 31 23 16 16 14 9 5 1 359 355 356 353 347 347 350 353 354 355 346 349 354 357 357 350 349 0 5 4 4 4 5 2 6 14 15 13 14 20
260 272 279 193 196 219 270 70 96 114 75 15 75 46 61 6 56 136 127 131 141 144 144 146 148 197 235 260 239 215 234 273 298 319 325 355 15 14 37 41 57 50 52 45 46 48 48 36 22 14 10 16 5 1 357 355 355 352 347 349 345 353 353 355 356 349 346 350 353 349 349 352 354 359 360 8 11 6 4 5 3 8 11 13 18
265 303 13 54 79 43 55 63 63 70 108 117 88 121 127 112 122 93 95 110 129 138 137 129 142 135 213 205 216 240 246 278 286 308 315 317 6 59 51 57 63 62 56 45 39 42 36 29 19 10 7 355 356 354 355 359 349 349 350 348 348 352 357 355 0 350 350 350 351 349 352 352 351 359 359 4 2 7 6 7 4 1 2 16 20
47 49 13 8 123 96 86 73 135 122 106 106 105 93 99 96 49 77 93 89 89 108 142 131 86 98 34 12 344 349 312 230 275 298 282 296 12 58 61 54 58 52 50 32 29 26 54 36 22 21 5 357 358 355 1 358 352 3 353 350 354 354 350 354 2 358 355 351 352 351 348 351 354 355 355 6 6 5 4 4 5 4 4 12 17
97 71 35 355 79 114 141 173 155 170 143 120 152 167 154 159 156 146 149 142 126 98 82 79 76 56 25 359 347 333 306 198 74 23 35 58 39 48 54 48 51 56 46 36 14 26 43 48 28 25 19 4 0 357 1 358 351 360 357 357 355 353 358 1 360 359 358 357 355 351 349 350 354 355 353 356 5 7 7 3 5 5 6 12 11
109 85 53 340 150 144 148 192 194 126 120 167 172 182 191 183 136 163 181 155 127 119 126 120 85 65 27 358 352 339 333 54 12 34 15 68 65 46 34 41 45 43 41 31 21 21 35 42 41 27 22 7 4 359 3 0 351 357 360 7 3 353 357 3 0 358 357 355 353 351 350 350 351 355 353 356 4 5 10 8 5 5 2 12 9
130 131 140 111 56 187 146 179 184 175 158 162 170 194 111 86 145 165 160 136 121 117 104 80 77 81 52 352 327 334 324 13 9 56 61 64 61 64 57 41 28 24 28 33 23 24 28 30 31 45 29 14 4 358 4 2 357 3 4 5 11 359 352 358 357 357 354 351 350 352 352 353 355 355 355 348 356 8 14 11 10 11 4 14 18
135 164 173 138 122 31 49 76 84 93 112 119 123 129 151 189 171 125 179 219 173 160 203 113 93 95 115 31 313 322 324 338 351 45 28 40 74 83 95 88 73 33 14 23 18 10 7 22 32 40 40 23 12 4 4 16 9 5 9 3 10 4 359 355 354 351 351 349 344 344 353 351 355 358 349 340 349 2 14 16 12 9 12 14 19
124 147 115 93 104 112 112 127 137 148 160 183 157 115 110 119 155 202 212 217 211 204 151 122 129 120 124 141 268 302 289 279 263 286 178 144 115 65 92 92 78 80 45 26 21 355 345 5 36 49 35 36 29 15 20 18 14 13 11 5 6 9 3 356 350 348 345 346 342 337 351 347 2 6 354 348 353 357 13 12 13 12 12 12 16
119 122 112 114 116 120 119 127 142 145 127 113 120 156 166 175 197 222 237 268 264 229 117 144 142 151 142 169 203 247 248 228 303 297 282 232 189 192 209 179 140 151 136 101 38 355 342 10 42 43 46 42 31 48 37 32 28 25 17 10 5 6 5 356 349 340 341 342 339 335 346 351 2 12 360 352 1 357 7 8 11 12 10 11 10
135 130 142 147 152 145 137 139 153 167 171 183 203 192 199 205 222 234 252 246 277 337 125 143 151 148 137 120 264 265 216 110 239 255 262 267 276 250 211 186 174 130 92 96 90 21 2 32 40 43 43 48 28 39 48 43 41 35 33 19 9 5 0 350 337 328 334 342 339 330 331 350 2 7 3 355 12 4 8 2 1 5 13 13 12
149 151 137 149 155 169 169 179 187 185 184 197 201 196 208 225 245 255 262 281 82 95 113 236 257 109 116 214 234 225 222 185 193 197 248 278 274 288 285 37 80 87 58 43 51 77 39 30 47 43 38 56 47 34 48 48 45 45 41 35 17 5 354 338 326 330 343 342 335 323 317 346 359 4 4 358 6 4 5 0 355 4 17 12 13
176 180 165 182 166 181 171 178 210 209 219 232 233 253 255 237 219 196 168 30 2 342 231 242 230 208 199 209 215 226 228 232 228 203 194 211 225 264 47 39 358 74 97 87 12 69 84 57 55 65 48 34 67 60 50 53 47 39 38 34 24 3 355 340 326 338 342 334 325 318 322 341 356 2 3 355 359 4 1 3 351 0 18 13 5
202 193 194 187 182 176 108 155 129 85 295 276 244 253 252 284 67 101 126 162 260 286 271 249 208 198 182 201 218 243 231 228 221 251 196 172 193 151 73 84 16 171 116 123 105 59 51 49 45 59 78 58 60 67 62 55 52 40 36 24 20 360 345 340 327 339 341 326 318 325 314 339 352 6 11 355 352 3 360 359 350 352 16 16 8
327 261 255 243 247 244 189 213 231 252 251 232 227 237 217 227 203 184 167 150 233 253 245 257 309 46 57 289 237 202 189 224 223 192 248 27 81 95 88 66 45 354 95 103 112 116 111 88 59 51 51 80 86 75 68 58 51 47 33 22 356 350 347 347 342 344 331 328 327 323 315 345 353 1 14 3 352 358 356 354 348 354 9 12 13
234 238 240 226 223 225 227 218 213 215 219 232 244 228 207 214 218 176 167 186 191 218 248 255 245 208 196 232 242 235 204 191 246 261 216 134 127 134 147 157 177 217 133 127 110 107 129 128 126 97 83 77 89 86 73 62 59 47 32 8 349 346 355 349 343 349 345 335 322 310 308 355 357 1 12 9 353 354 357 357 351 356 8 5 8
211 211 218 222 212 198 211 216 212 215 223 231 227 217 208 206 229 190 187 187 203 185 199 233 230 214 202 214 186 225 187 180 193 181 152 153 144 146 154 170 178 173 129 164 169 150 137 111 104 129 119 102 94 91 79 64 57 52 28 4 360 358 0 359 350 338 337 334 317 304 343 360 3 6 11 9 357 355 1 357 351 0 8 2 3